[Iaude] MPEC M36: 2022 HD1 [a=1.60,e=0.37,i=5.7,H=23.75]

mpec at cfa.harvard.edu mpec at cfa.harvard.edu
Thu Jun 20 10:12:52 EDT 2024


M.P.E.C. 2024-M36                                 Issued 2024 June 20, 14:11 UT

     The Minor Planet Electronic Circulars contain information on unusual
         minor planets, routine data on comets and natural satellites,
         and occasional editorial announcements.  They are published
    on behalf of Division F of the International Astronomical Union by the
          Minor Planet Center, Smithsonian Astrophysical Observatory,
                          Cambridge, MA 02138, U.S.A.
			  
             Prepared using the Tamkin Foundation Computer Network

                              MPC at CFA.HARVARD.EDU
            URL https://www.minorplanetcenter.net/    ISSN 1523-6714

                                    2022 HD1                                    


                           Revision to MPEC 2022-H47                            

Additional Observations:
     K22H01D KC2024 06 08.15741910 49 56.139+15 18 06.72         21.4 GVEM036I52
     K22H01D KC2024 06 08.16979610 49 56.570+15 17 15.20         21.8 GVEM036I52
     K22H01D KC2024 06 08.18216110 49 57.006+15 16 23.10         21.2 GVEM036I52
     K22H01D KC2024 06 19.17098811 04 21.860-04 57 57.80               VEM036I52
     K22H01D KC2024 06 19.18296511 04 22.880-05 00 02.60         21.79GVEM036I52
     K22H01D KC2024 06 19.18896311 04 23.370-05 01 04.00         21.08GVEM036I52

Observer details:
I52 Steward Observatory, Mt. Lemmon Station.  Observers R. A. Kowalski, V. F.
    Carvajal.  Measurers D. Rankin, D. Parrott, T. Beuden, V. F. Carvajal, D.
    Fay, J. B. Fazekas, D. C. Fuls, A. R. Gibbs, A. D. Grauer, H. Groeller, J.
    K. Hogan, R. A. Kowalski, S. M. Larson, G. J. Leonard, R. L. Seaman, F. C.
    Shelly, K. W. Wierzchos.  1.00-m f/2.0 prime focus + CCD + CCD, 1.0-m
    prime focus + CCD.

First and last observations above in comparison with prediction:
Residuals in seconds of arc (or two decimals in degrees), reference and Delta-T
240608 I52 0.10- 0.09-    240619 I52 0.39- 0.61-    E2024-BD1   +0.03 days

Orbital elements:
2022 HD1                                                 Earth MOID = 0.0102 AU
Epoch 2024 Mar. 31.0 TT = JDT 2460400.5                 Veres                   
M 325.61770              (2000.0)            P               Q                  
n   0.48703065     Peri.  174.78927     -0.27729831     +0.95573834             
a   1.5999209      Node    79.08496     -0.88508036     -0.21428611             
e   0.3725849      Incl.    5.74765     -0.37381600     -0.20160774             
P   2.02           H   23.75          G   0.15           U   0                  
Residuals in seconds of arc
220408 F52  0.0   0.2+    220425 I52  0.3+  0.2+    220507 703  0.9-  0.7-
220408 F52  0.0   0.5+    220425 033  0.0   0.1+    220507 703  0.6-  0.1+
220410 F52  0.1-  0.4+    220425 033  0.1-  0.1+    220507 703  0.7+  0.7+
220415 F52  0.1-  0.7-    220425 033  0.1-  0.3+    220508 G96  0.0   0.1+
220415 F52  0.6-  0.7-    220426 033  0.1+  0.4+    220508 G96  0.1+  0.2+
220415 F52  0.0   0.1-    220426 033  0.1+  0.1+    220508 G96  0.0   0.1+
220418 F52  0.5-  0.1-    220426 033  0.2+  0.2+    220508 G96  0.1+  0.1+
220419 F52  0.3-  0.2+    220429 I52  0.2+  0.1+    220508 G96  0.1+  0.1+
220421 F52  0.0   0.0     220429 I52  0.4+  0.2+    220508 G96  0.1+  0.1+
220421 F52  0.1-  0.0     220429 I52  0.3-  0.0     220508 G96  0.2-  0.2+
220423 G96  0.0   0.1+    220429 I52  0.3-  0.1+    220508 G96  0.1+  0.1+
220423 G96  0.0   0.3-    220430 033  0.1-  0.0     220510 H21  0.3+  0.0
220423 G96  0.1-  0.3-    220430 033  0.0   0.1+    220510 H21  0.3+  0.0
220423 G96  0.0   0.4-    220430 033  0.1+  0.2+    220511 H21  0.0   0.2+
220423 I52 (0.0   1.8-)   220501 U68  0.2-  0.3+    220511 H21  0.3+  0.2+
220423 I52 (1.4+  0.6-)   220501 U68  0.2+  0.1-    220511 H21  0.2+  0.2+
220423 I52  0.0   0.1-    220501 U68  0.1-  0.4+    220511 H21  0.2+  0.4+
220423 I52  0.1+  0.1-    220501 U68  0.1+  0.1-    220511 H21  0.2+  0.3+
220424 I52  0.4-  0.4-    220503 I52  0.1+  0.0     220511 H21  0.0   0.4+
220424 I52  0.3-  0.0     220503 I52  0.1+  0.1-    220511 703  0.2+  0.5+
220424 I52  0.1-  0.5+    220503 I52  0.2-  0.0     220511 703  0.2+  0.2+
220424 I52 (0.6-  0.8-)   220503 I52  0.2+  0.0     220511 703  0.3+  0.2-
220424 H21  0.0   0.1+    220504 I52  0.1+  0.3+    220511 703  0.0   0.3-
220424 H21  0.1+  0.1+    220504 I52  0.3+  0.4-    220514 703  0.0   0.9+
220424 H21  0.4+  0.0     220504 I52  0.1-  0.1-    220514 703  0.2-  0.8-
220424 654  0.1-  0.1+    220504 I52  0.1+  0.2-    220514 703  0.7-  0.6-
220424 658  2.9+  2.6+    220505 I52  0.2-  0.3+    220517 Z84  0.3-  0.3-
220424 658  2.3+  2.0+    220505 I52  0.2+  0.1+    220517 Z84 (0.9-  0.5-)
220424 654  0.0   0.0     220505 I52  0.0   0.1-    220518 I52  0.3-  0.2-
220424 658  1.7+  1.6+    220505 I52  0.1+  0.1+    220518 I52  0.3-  0.1+
220424 658  1.3+  1.0+    220505 033  0.1-  0.1+    220518 I52  0.1+  0.0
220424 658  0.8+  0.7+    220505 033  0.1+  0.1+    220518 I52  0.1+  0.1-
220424 654  0.0   0.1+    220505 033  0.0   0.2+    220524 G96  0.7+  0.3-
220424 F52  0.4-  0.3-    220506 033  0.3+  0.3+    220524 G96  0.1+  0.1+
220424 C95  0.1-  0.2-    220506 033  0.1+  0.1+    220524 G96  0.2+  0.6+
220424 C95  0.7-  0.4-    220506 033  0.1+  0.1+    220524 G96  0.3+  0.2-
220424 I93  0.0   0.1+    220506 I52  0.1-  0.0     240608 I52  0.3-  0.1-
220424 I93  0.3+  0.2+    220506 I52  0.0   0.1-    240608 I52  0.1+  0.1+
220424 I93  0.1-  0.5-    220506 I52  0.1+  0.1-    240608 I52  0.3+  0.1-
220424 J95  0.1-  0.4-    220506 I52  0.1+  0.1-    240619 I52  0.5-  0.2+
220424 J95  0.3-  0.1-    220507 033  0.3+  0.1+    240619 I52  0.2+  0.5-
220424 J95  0.3-  0.5+    220507 033  0.0   0.1+    240619 I52  0.0   0.3+
220424 J95  0.1-  0.5-    220507 033  0.1-  0.0
220425 I52  0.1-  0.1-    220507 703  1.1-  0.3+

Ephemeris:
2022 HD1                 a,e,i = 1.60, 0.37, 6                   q = 1.0038
Date    TT    R. A. (2000) Decl.     Delta      r    Elong.  Phase     V
2024 05 21    10 37 22.0 +27 48 18   0.1552  1.0244    90.2    81.1    22.6
...
2024 06 05    10 47 08.1 +18 32 03   0.1050  1.0050    81.8    92.3    22.1
...
2024 06 13    10 55 13.8 +08 39 42   0.07770 1.0045    79.6    96.0    21.7
...
2024 06 19    11 04 09.4 -04 26 58   0.05905 1.0087    81.1    95.5    21.0
2024 06 20    11 06 05.7 -07 25 57   0.05630 1.0097    81.9    94.9    20.9
2024 06 21    11 08 13.8 -10 42 33   0.05371 1.0109    82.8    94.1    20.8
...
2024 06 27    11 28 33.2 -37 10 59   0.04308 1.0202    93.7    83.9    19.9
...
2024 07 05    13 45 10.1 -76 18 50   0.04847 1.0381   114.9    62.6    19.5
...
2024 07 20    21 32 59.8 -62 35 48   0.09654 1.0866   135.0    41.4    20.5

A. U. Tomatic                (C) Copyright 2024 MPC           M.P.E.C. 2024-M36





More information about the Iaude mailing list